STARLINK-32133, 60333

Orbit data source: Space-Track

STARLINK-32133, 60333 is a payload satellite owned by SpaceX/Seattle (US) in LEO that was launched on Fri, 02 Aug 2024 UTC via an FALCON 9 launch vehicle from the Air Force Eastern Test Range (AFETR). Payload-class satellites include a variety of spacecraft equipped with specific instruments for various scientific and technological missions. These include communications satellites like Starlink; space stations such as the ISS; scientific satellites like the Hubble; Earth observation satellites from companies like Planet Labs, Umbra, and HawkEye 360; GPS; miniature CubeSats for education and research; and military/defense satellites.

Loading next visibility...
Identifier
60333, 2024-136E
Orbit
LEO
Last TLE update
12 hours ago
Origin
Manufacturer
SpaceX/Seattle
Mission
Operational Commercial Communications
Bus & Motor
STARLINK V2M, Unknown motor
Mass
730 kg wet, ~700 kg dry
Launch date (UTC)
2024-08-02 (11 months ago)
Launch vehicle
FALCON 9
Launch site
Air Force Eastern Test Range (AFETR)
Object type
Payload
Rocket body
Debris
Shape & HBR
Box + 2 Pan, 29 m
Radar Cross Section
33.884 m², Large (>1 m²)

Expand to show TLE details & history

TLE from 12 hours ago
0 STARLINK-32133
1 60333U 24136E   25181.91704639 -.00000056  00000-0  10243-4 0  9993
2 60333  53.1591 165.3708 0001106  90.7224 269.3904 15.30196494 51116
Epoch: 2025-06-30T22:00Z
TLE epoch observation values (Epoch: 2025-06-30T22:00:32.808Z)
Latitude
0.00004°
Longitude
-83.98585°
Altitude
476.133 km
Speed
7.629 km/s
True Right ascension
11h 01m 28s
True Declination
0° 00' 00"
Sunlit
Object was in daylight at epoch
Visualization orbit readout
Latitude
-19.70488°
Longitude
-101.86939°
Altitude
481.03 km
Speed
7.625 km/s
Apparent Right ascension
09h 56m 24s
Apparent Declination
-29° 17' 50"
Sunlit
Object is in daylight
Visualization observer readout
Local Sidereal Time
22:04:56
Azimuth
10.007° NNE
Elevation
-79.238°
Doppler factor
1
Orbital elements
Apogee altitude
476.24 km
Perigee altitude
474.724 km
Semi-major axis
6,853.619 km
Eccentricity
0.00011
Inclination
53.1591°
RAAN
165.3708°
Arg. of periapsis
90.7224°
True anomaly
Unknown
Mean anomaly
269.3904°
Eccentric anomaly
Unknown
Mean motion
3.82528 °/min
Orbital period
94.11 mins
BSTAR
0.000010243
Loading maneuver chart data...
Loading SW <> Apogee altitude chart data...
Loading historical data...
Loading historical data...
Loading historical data...
Loading historical data...
Loading historical data...
Loading historical data...
Loading historical data...

STARLINK-32133 Visibility forecast

Observer location: undefined°, undefined°

Span
Click to sort rows by Start time (UTC) header in descending order
Start Az.
Max El. time (UTC)
Max El. Az.
Max El.
End time (UTC)
End Az.
6 mins2025-07-02 00:48:29.705Z198.127° SSW2025-07-02 00:51:29.705Z143.501° SSE28.815°2025-07-02 00:54:29.705Z71.534° E
5 mins2025-07-02 02:27:29.705Z275.794° WNW2025-07-02 02:29:29.705Z322.661° NNW27.177°2025-07-02 02:32:29.705Z29.757° NE
5 mins2025-07-02 07:24:29.705Z336.718° NNW2025-07-02 07:26:29.705Z26.663° NE28.612°2025-07-02 07:29:29.705Z93.958° ESE
5 mins2025-07-02 09:02:29.705Z278.342° WNW2025-07-02 09:04:29.705Z227.711° WSW27.191°2025-07-02 09:07:29.705Z166.788° S
|